Find INTELSAT 703

NORAD ID: 23305 Int'l Des: 1994-064 Owner: INTEL Country: I-INT operational
HEOCIRCULAR

当前视图

正在加载3D地球...

About INTELSAT 703

INTELSAT 703 (NORAD 23305) is a satellite launched Oct 6, 1994 by INTEL of I-INT. It operates in HEO, CIRCULAR orbit with a mass of 3695.00 kg.

即将过境

Passes for default location (London). Set your location on the main map for personalized predictions.

高度历史

Loading altitude history...

两行轨道根数

1 23305U 94064A 26195.50855475 -.00000183 00000-0 00000-0 0 9991
2 23305 11.7707 36.6031 0005293 263.5855 280.6751 0.99301953116006
Epoch: Jul 14, 2026 • Age: 11 hours

当前状态

高度 36057.9 km
远地点 / 近地点 N/A
速度 3.06 km/s
星下点 -2.73°S, 104.17°E
发射日期 Oct 6, 1994
运行时间 31.7 years
类型 communications

技术详情

分类 Payload
质量 3695.00 kg
干质量 1500.00 kg
总质量 3695.00 kg
长度 4.20 m
直径 2.50 m
跨度 21.80 m
形状 Box + 2 Pan
制造商 LOR
平台类型 FS-1300
阶段状态 Renamed
所有者/国家 INTEL/I-INT

Most Searched